Location: Newark
(45.2500°N, 7.5833°E)
Time: 04:44:10
(UTC+00:00)

Tiros 1 despin weight - Pass Details

Date: 30 January 2020
Orbit: 594 x 642 km, 48.2° (Epoch: 16 February)

Event Time Altitude Azimuth Distance (km) Brightness Sun altitude
Rises 12:41:54 0° 286° (WNW) 2,878 ? 25.6°
Reaches altitude 10° 12:44:12 10° 288° (WNW) 1,980 ? 25.5°
Maximum altitude 12:48:45 71° 12° (NNE) 663 ? 25.3°
Drops below altitude 10° 12:53:22 10° 98° (E) 2,007 ? 25.0°
Sets 12:55:43 0° 100° (E) 2,920 ? 24.9°
